Total_Precipitation_Accumulation
0.05 0.12 0.31 0.58 0.76 0.92 0.83 0.69 0.59 0.49 0.36 0.26 0.19 0.15 0.13 0.10 0.11 0.13 0.13 0.14 0.14 0.13 0.13 0.10 0.10 0.10 0.10 0.09 0.07 0.06 0.06 0.04 0.03 0.02 0.02 0.01 0.01 0.02 0.02 0.01 0.01 0.01 0.01
0.05 0.13 0.27 0.36 0.41 0.53 0.65 0.68 0.59 0.50 0.43 0.39 0.30 0.25 0.20 0.18 0.20 0.24 0.29 0.28 0.25 0.22 0.17 0.13 0.09 0.08 0.07 0.05 0.04 0.03 0.02 0.01 0.01 0.01 0.01 0.00 0.00 0.00 0.00 0.00 0.00 0.00 0.00
0.05 0.08 0.14 0.22 0.29 0.43 0.61 0.67 0.61 0.57 0.54 0.46 0.40 0.37 0.33 0.30 0.35 0.41 0.42 0.37 0.30 0.23 0.17 0.11 0.06 0.04 0.03 0.02 0.02 0.02 0.02 0.01 0.01 0.01 0.02 0.02 0.01 0.00 0.00 0.00 0.00 0.00 0.00
0.04 0.06 0.09 0.17 0.31 0.49 0.62 0.65 0.63 0.61 0.59 0.52 0.48 0.48 0.46 0.43 0.46 0.40 0.38 0.31 0.21 0.14 0.09 0.06 0.04 0.02 0.01 0.01 0.01 0.01 0.01 0.01 0.01 0.00 0.01 0.01 0.01 0.02 0.01 0.00 0.00 0.00 0.00
0.03 0.06 0.10 0.18 0.34 0.50 0.60 0.63 0.63 0.64 0.60 0.53 0.50 0.49 0.45 0.42 0.36 0.28 0.23 0.16 0.11 0.07 0.05 0.03 0.02 0.01 0.01 0.01 0.01 0.00 0.00 0.00 0.00 0.00 0.01 0.01 0.01 0.02 0.04 0.02 0.01 0.00 0.00
0.03 0.06 0.10 0.17 0.27 0.35 0.44 0.47 0.47 0.49 0.49 0.46 0.42 0.36 0.33 0.30 0.25 0.18 0.13 0.08 0.05 0.03 0.02 0.01 0.01 0.01 0.00 0.00 0.00 0.00 0.01 0.01 0.02 0.02 0.02 0.02 0.03 0.03 0.04 0.05 0.03 0.01 0.00
0.03 0.05 0.11 0.15 0.22 0.26 0.29 0.32 0.32 0.31 0.28 0.25 0.24 0.22 0.19 0.15 0.12 0.09 0.06 0.04 0.02 0.02 0.01 0.01 0.01 0.01 0.00 0.00 0.01 0.01 0.02 0.02 0.03 0.03 0.03 0.04 0.04 0.05 0.07 0.09 0.07 0.04 0.01
0.04 0.07 0.13 0.17 0.19 0.21 0.23 0.25 0.25 0.21 0.19 0.18 0.16 0.14 0.11 0.09 0.06 0.04 0.02 0.02 0.01 0.01 0.01 0.01 0.01 0.01 0.01 0.01 0.02 0.02 0.02 0.03 0.04 0.04 0.06 0.07 0.06 0.07 0.10 0.13 0.16 0.14 0.07
0.07 0.13 0.18 0.20 0.20 0.18 0.18 0.18 0.16 0.15 0.14 0.13 0.10 0.09 0.08 0.06 0.04 0.03 0.02 0.02 0.02 0.01 0.01 0.01 0.01 0.02 0.03 0.04 0.05 0.05 0.05 0.07 0.08 0.08 0.08 0.09 0.08 0.08 0.09 0.11 0.16 0.23 0.19
0.13 0.19 0.22 0.20 0.16 0.14 0.15 0.14 0.11 0.11 0.10 0.08 0.08 0.06 0.06 0.05 0.04 0.03 0.03 0.02 0.02 0.02 0.02 0.03 0.03 0.04 0.04 0.05 0.07 0.08 0.08 0.10 0.10 0.10 0.10 0.10 0.10 0.11 0.12 0.14 0.16 0.22 0.28
0.20 0.27 0.26 0.19 0.14 0.11 0.11 0.11 0.09 0.08 0.07 0.07 0.06 0.06 0.05 0.04 0.03 0.03 0.03 0.03 0.03 0.03 0.04 0.04 0.05 0.05 0.05 0.06 0.08 0.09 0.09 0.09 0.08 0.08 0.09 0.10 0.11 0.12 0.12 0.15 0.20 0.24 0.30
0.26 0.28 0.26 0.19 0.15 0.13 0.11 0.10 0.11 0.10 0.08 0.07 0.06 0.05 0.04 0.03 0.03 0.03 0.03 0.04 0.05 0.05 0.06 0.06 0.06 0.06 0.06 0.06 0.09 0.09 0.08 0.09 0.09 0.09 0.10 0.09 0.09 0.11 0.12 0.15 0.18 0.20 0.25
0.37 0.34 0.29 0.20 0.14 0.13 0.13 0.12 0.12 0.11 0.08 0.06 0.04 0.03 0.03 0.03 0.04 0.05 0.05 0.06 0.06 0.07 0.07 0.07 0.07 0.06 0.07 0.08 0.10 0.09 0.08 0.08 0.08 0.09 0.11 0.10 0.11 0.12 0.14 0.18 0.19 0.21 0.24
0.36 0.27 0.21 0.16 0.13 0.13 0.13 0.12 0.11 0.09 0.06 0.04 0.03 0.03 0.04 0.06 0.07 0.07 0.07 0.07 0.07 0.08 0.07 0.06 0.06 0.07 0.08 0.07 0.06 0.05 0.05 0.06 0.06 0.07 0.10 0.11 0.14 0.17 0.19 0.19 0.21 0.26 0.30
0.29 0.25 0.21 0.17 0.15 0.14 0.13 0.12 0.11 0.09 0.06 0.05 0.06 0.07 0.07 0.07 0.08 0.08 0.09 0.09 0.08 0.07 0.06 0.06 0.06 0.08 0.07 0.03 0.02 0.02 0.02 0.04 0.05 0.07 0.09 0.10 0.13 0.18 0.20 0.22 0.26 0.35 0.40
0.28 0.27 0.23 0.19 0.17 0.17 0.18 0.16 0.13 0.10 0.09 0.09 0.10 0.09 0.08 0.09 0.10 0.09 0.09 0.08 0.08 0.07 0.05 0.05 0.04 0.04 0.03 0.01 0.01 0.00 0.01 0.03 0.07 0.10 0.09 0.06 0.07 0.10 0.14 0.21 0.28 0.35 0.41
0.30 0.27 0.22 0.20 0.20 0.21 0.21 0.19 0.18 0.16 0.15 0.13 0.12 0.11 0.09 0.08 0.08 0.07 0.08 0.07 0.06 0.04 0.03 0.03 0.03 0.03 0.02 0.00 0.00 0.00 0.01 0.05 0.09 0.12 0.09 0.06 0.04 0.08 0.12 0.16 0.20 0.26 0.36
0.22 0.19 0.19 0.22 0.25 0.27 0.27 0.25 0.22 0.18 0.15 0.12 0.10 0.09 0.07 0.06 0.06 0.06 0.05 0.04 0.03 0.03 0.03 0.02 0.02 0.02 0.01 0.00 0.00 0.00 0.01 0.05 0.07 0.08 0.08 0.08 0.09 0.10 0.13 0.15 0.20 0.30 0.37
0.17 0.19 0.24 0.30 0.33 0.32 0.27 0.21 0.16 0.12 0.10 0.08 0.07 0.05 0.04 0.03 0.03 0.02 0.02 0.02 0.03 0.03 0.02 0.02 0.02 0.02 0.02 0.00 0.00 0.00 0.01 0.02 0.03 0.04 0.06 0.08 0.11 0.12 0.19 0.26 0.35 0.51 0.65
0.16 0.24 0.30 0.32 0.31 0.26 0.18 0.13 0.11 0.08 0.07 0.05 0.04 0.02 0.01 0.01 0.01 0.02 0.02 0.03 0.03 0.02 0.01 0.01 0.02 0.03 0.03 0.01 0.00 0.00 0.01 0.02 0.02 0.03 0.06 0.11 0.17 0.18 0.29 0.37 0.50 0.69 0.82
0.23 0.27 0.29 0.27 0.21 0.15 0.11 0.10 0.08 0.06 0.03 0.02 0.01 0.01 0.01 0.01 0.01 0.01 0.02 0.02 0.02 0.02 0.02 0.02 0.02 0.03 0.03 0.02 0.00 0.00 0.01 0.03 0.04 0.07 0.12 0.17 0.25 0.25 0.37 0.53 0.64 0.86 0.94
0.29 0.30 0.26 0.19 0.13 0.08 0.06 0.06 0.05 0.02 0.01 0.00 0.01 0.01 0.00 0.00 0.00 0.01 0.01 0.02 0.02 0.01 0.01 0.01 0.02 0.02 0.03 0.02 0.01 0.00 0.01 0.03 0.06 0.14 0.23 0.27 0.30 0.33 0.50 0.63 0.81 1.06 1.11
0.27 0.21 0.15 0.11 0.06 0.03 0.03 0.03 0.02 0.01 0.00 0.01 0.01 0.01 0.00 0.00 0.00 0.01 0.01 0.01 0.01 0.01 0.01 0.01 0.02 0.02 0.02 0.02 0.01 0.01 0.01 0.03 0.07 0.18 0.35 0.37 0.35 0.50 0.71 0.90 1.04 1.15 1.05
0.15 0.10 0.06 0.04 0.02 0.01 0.01 0.01 0.00 0.00 0.00 0.00 0.01 0.01 0.00 0.00 0.00 0.00 0.00 0.01 0.01 0.01 0.02 0.03 0.03 0.03 0.03 0.03 0.03 0.03 0.04 0.06 0.08 0.16 0.31 0.43 0.48 0.64 0.87 1.03 1.09 1.08 0.99
0.06 0.04 0.03 0.02 0.01 0.00 0.00 0.00 0.00 0.00 0.00 0.00 0.01 0.01 0.00 0.00 0.00 0.01 0.00 0.01 0.01 0.01 0.02 0.04 0.05 0.06 0.05 0.04 0.05 0.07 0.08 0.09 0.13 0.17 0.22 0.30 0.42 0.60 0.78 0.89 0.92 0.87 0.82
0.03 0.02 0.01 0.01 0.00 0.00 0.00 0.00 0.00 0.00 0.00 0.01 0.01 0.00 0.00 0.00 0.00 0.01 0.01 0.00 0.00 0.01 0.01 0.03 0.05 0.05 0.05 0.03 0.03 0.05 0.08 0.12 0.16 0.19 0.27 0.39 0.52 0.66 0.76 0.82 0.80 0.74 0.68